Location: Vancouver
(49.2500°N, 123.1330°W)
Time: 16:46:11
(UTC-07:00)

S-56A Canister/Altair - Visible Passes

Search period start: 18 September 2014 00:00
Search period end: 28 September 2014 00:00
Orbit: 633 x 2503 km, 38.9° (Epoch: 17 September)

Date Brightness Start Highest point End Pass type
(mag) Time Alt. Az. Time Alt. Az. Time Alt. Az.
23 Sep 9.6 06:27:16 10° S 06:29:05 12° SSE 06:30:55 10° SE visible
24 Sep 9.7 05:56:04 10° SSE 05:57:06 11° SSE 05:58:09 10° SE visible
27 Sep 9.1 06:20:34 10° SW 06:23:50 19° SSE 06:27:02 10° ESE visible
